AirNav   Bose ProFlight Series 2 Headset
 
 583 users online  

H68 Hefner-Easley Airport
Wagoner, Oklahoma, USA

GOING TO WAGONER?


FAA INFORMATION EFFECTIVE 26 MARCH 2020

Location

FAA Identifier: H68
Lat/Long: 35-57-56.5000N 095-20-30.5000W
35-57.941667N 095-20.508333W
35.9656944,-95.3418056
(estimated)
Elevation: 598.9 ft. / 182.5 m (surveyed)
Variation: 04E (2005)
From city: 2 miles E of WAGONER, OK
Time zone: UTC -5 (UTC -6 during Standard Time)
Zip code: 74467

Airport Operations

Airport use: Open to the public
Activation date: 12/1952
Control tower: no
ARTCC: KANSAS CITY CENTER
FSS: MC ALESTER FLIGHT SERVICE STATION
NOTAMs facility: MLC (NOTAM-D service available)
Attendance: UNATNDD
Wind indicator: yes
Segmented circle: yes
Lights: ACTVT PAPI RWY 18 & 36; MIRL RWY 18/36 DUSK-DAWN - CTAF.
Beacon: white-green (lighted land airport)
Operates sunset to sunrise.

Airport Communications

CTAF: 122.9
TULSA APPROACH: 119.1
TULSA DEPARTURE: 119.1
WX AWOS-3PT at H71 (16 nm N): 120.1 (918-476-0517)
WX AWOS-3 at TQH (17 nm E): 118.425 (918-453-2729)
WX ASOS at MKO (19 nm S): 135.025 (918-683-6987)

Nearby radio navigation aids

VOR radial/distance  VOR name  Freq  Var
TULr115/25.7TULSA VORTAC114.4008E
OKMr049/30.3OKMULGEE VOR/DME114.9008E

Airport Services

Parking: tiedowns
Airframe service: MAJOR
Powerplant service: MAJOR
Bottled oxygen: NONE
Bulk oxygen: NONE

Runway Information

Runway 18/36

Dimensions: 3401 x 60 ft. / 1037 x 18 m
Surface: asphalt, in good condition
Weight bearing capacity: 
Single wheel: 12.5
Runway edge lights: medium intensity
RUNWAY 18  RUNWAY 36
Latitude: 35-58.221520N35-57.661043N
Longitude: 095-20.510493W095-20.505978W
Elevation: 583.7 ft.598.9 ft.
Traffic pattern: leftleft
Runway heading: 176 magnetic, 180 true356 magnetic, 360 true
Markings: nonprecision, in good conditionnonprecision, in good condition
Visual slope indicator: 2-light PAPI on left (3.00 degrees glide path)
PAPI UNUSBL BYD 7 DEGS LEFT OF CRS & 8 DEGS RIGHT OF CRS.
2-light PAPI on left (3.00 degrees glide path)
Touchdown point: yes, no lightsyes, no lights
Obstructions: 28 ft. trees, 396 ft. from runway, 75 ft. left of centerline, 7:1 slope to clear44 ft. trees, 790 ft. from runway, 13:1 slope to clear

Airport Ownership and Management from official FAA records

Ownership: Publicly-owned
Owner: CITY OF WAGONER
PO BOX 406, 231 CHURCH ST.
WAGONER, OK 74467
Phone 918-485-2554
Manager: TAYLOR TANNEHILL
231 CHURCH ST., 231 CHURCH ST.
WAGONER, OK 74467
Phone 918-485-2554
AFTER HRS CONTACT 918-527-7099 OR 918-629-8833.

Airport Operational Statistics

Aircraft based on the field: 36
Single engine airplanes: 30
Multi engine airplanes: 1
Ultralights: 5
    
Aircraft operations: avg 77/week *
90% local general aviation
8% transient general aviation
2% military
* for 12-month period ending 07 April 2017

Additional Remarks

ULTRALIGHTS ON AND IN VICINITY OF AIRPORT.
N-S TURF USED FOR TWY ONLY.
FOR CD CTC MEMPHIS ARTCC AT 901-368-8453.

Instrument Procedures

NOTE: All procedures below are presented as PDF files. If you need a reader for these files, you should download the free Adobe Reader.

NOT FOR NAVIGATION. Please procure official charts for flight.
FAA instrument procedures published for use from 26 March 2020 at 0901Z to 23 April 2020 at 0900Z.

 
IAPs - Instrument Approach Procedures
RNAV (GPS) RWY 18 **CHANGED**   download (157KB)
RNAV (GPS) RWY 36 **CHANGED**   download (224KB)
NOTE: Special Take-Off Minimums/Departure Procedures apply   download (131KB)

Other nearby airports with instrument procedures:

H71 - Mid-America Industrial Airport (16 nm N)
KTQH - Tahlequah Municipal Airport (17 nm E)
KMKO - Muskogee-Davis Regional Airport (19 nm S)
KGCM - Claremore Regional Airport (21 nm N)
KTUL - Tulsa International Airport (30 nm NW)
 
Loc | Ops | Rwys | IFR | FBO | Links
Com | Nav | Svcs | Stats | Notes
Area around H68 (Hefner-Easley Airport)
 
Road maps at: MapQuest Bing Google
 
Aerial photo
WARNING: Photo may not be current or correct
Aerial photo of H68 (Hefner-Easley Airport)
Photo by Brent Butler
Photo taken 17-Aug-2010
Sam landing at Wagoner

Do you have a better or more recent aerial photo of Hefner-Easley Airport that you would like to share? If so, please send us your photo.

 
Sectional chart

 
Airport distance calculator
Flying to Hefner-Easley Airport? Find the distance to fly.

From to H68

Sunrise and sunset
Times for 29-Mar-2020
 Local
(UTC-5)
 Zulu
(UTC)
Morning civil twilight06:4611:46
Sunrise07:1212:12
Sunset19:4000:40
Evening civil twilight20:0601:06

Current date and time
Zulu (UTC)  29-Mar-2020 12:56:37
Local (UTC-5)  29-Mar-2020 07:56:37
 
METAR
KTQH 
17nm E 
291235Z AUTO 00000KT 10SM CLR 02/02 A3011 RMK AO2
KMKO 
19nm S 
291153Z AUTO 24005KT 10SM CLR 06/03 A3010 RMK AO2 SLP191 70002 T00610028 10122 20056 53020
KGCM 
21nm N 
291235Z AUTO 00000KT 10SM CLR 05/00 A3011 RMK AO2
KTUL 
30nm NW 
291153Z 24004KT 10SM CLR 09/03 A3008 RMK AO2 SLP183 70006 T00890033 10111 20078 53020
KRVS 
32nm W 
291153Z 00000KT 10SM CLR 07/04 A3009 RMK AO2 SLP198 70004 T00670039 10122 20061 53021
TAF
KTUL 
30nm NW 
291121Z 2912/3012 24005KT P6SM SKC FM291500 25008KT P6SM SCT250 FM300100 16005KT P6SM SCT250
KRVS 
32nm W 
291121Z 2912/3012 00000KT P6SM SKC FM291500 22007KT P6SM SCT250 FM300100 VRB03KT P6SM SCT250
NOTAMs
Click for the latest NOTAMs
NOTAMs are issued by the DoD/FAA and will open in a separate window not controlled by AirNav.

 

 
 

Aviation Businesses, Services, and Facilities

  
 Business Name 
 
 Contact 
 
 Services / Description 
 
Distance
 
Comments
  
Integrity Airmotive, LLC 918-640-7817
[email]
Flight training, Aerial tours / aerial sightseeing, Aircraft maintenance, Aircraft modifications, Aircraft cleaning / washing / detailing

More info about Integrity Airmotive, LLC
on airport  
   write
 

Would you like to see your business listed on this page?

 If your business provides an interesting product or service to pilots, flight crews, aircraft, or users of the Hefner-Easley Airport, you should consider listing it here.  To start the listing process, click on the button below
 
Add a business
 

Other Pages about Hefner-Easley Airport

Update a link
 
Copyright © AirNav, LLC. All rights reserved. Privacy Policy  Contact